Commit Graph

693 Commits

Author SHA1 Message Date
Dillon DuPont 3ab5b65a25 Fixes for hotkey and claude scrolling 2025-06-04 15:50:02 -04:00
Dillon DuPont 3e6cb3465e Moved @sandboxed example 2025-06-04 15:20:17 -04:00
Dillon DuPont a4250f57fa Added to README.md 2025-06-04 14:53:54 -04:00
Dillon DuPont 8f5f72ab21 Replace example 2025-06-04 14:47:46 -04:00
Dillon DuPont dd717764e3 Revert presskey and hotkey to pyautogui 2025-06-04 14:26:42 -04:00
Dillon DuPont 08ce9c67c1 Replaced pyautogui with pynput on macOS (#125, #165) 2025-06-04 14:07:24 -04:00
Dillon DuPont 92ca6d2923 Bugfixes 2025-06-04 12:03:06 -04:00
Dillon DuPont aa4dc71b9c Mouse bug fixes 2025-06-04 11:06:43 -04:00
Dillon DuPont 4693f2f0eb Fixed 'max() iterable argument is empty' 2025-06-04 09:58:13 -04:00
Dillon DuPont c2302eb6c6 Added results table 2025-06-04 09:46:09 -04:00
Dillon DuPont 58a453dc49 App-usage stability fixes 2025-06-04 09:05:20 -04:00
Dillon DuPont 79bcf9d05d Added top wiki links 2025-06-03 21:37:58 -04:00
Dillon DuPont 86d052d882 updated eval to use sandboxed decorator 2025-06-03 21:19:46 -04:00
Dillon DuPont a7e56ce64a Added @sandboxed decorator 2025-06-03 18:54:00 -04:00
Dillon DuPont fa07ee444a More freq checks 2025-06-03 14:51:11 -04:00
Dillon DuPont e16fb75ce8 Added locks to websocket interface 2025-06-03 14:50:56 -04:00
Dillon DuPont 89deb8111f Fixed agent stop 2025-06-03 14:22:30 -04:00
Dillon DuPont c5c91729a2 Added cleanup step 2025-06-03 14:18:52 -04:00
Dillon DuPont a6397e9a9b Added decorator example 2025-06-03 14:10:48 -04:00
Dillon DuPont 420b67d2a8 wiki-race evaluator 2025-06-03 13:26:11 -04:00
Dillon DuPont 312361abcc Added python funcs to computer 2025-06-03 13:12:01 -04:00
Dillon DuPont d1e3fc5911 Fixed README example case 2025-06-02 21:42:32 -04:00
ddupont 99b979ef11 Merge pull request #280 from trycua/feature/computer/extensions
[Computer] Add App-Use to Computer interface
computer-server-v0.1.10 computer-v0.2.8
2025-05-31 14:39:40 -04:00
Dillon DuPont 5846f0ef08 removed extra files 2025-05-31 12:40:02 -04:00
Dillon DuPont df9a080d03 Temporary macOS assert for app-use 2025-05-31 12:21:49 -04:00
Dillon DuPont 500465883d Added experiment flag for now 2025-05-31 12:19:51 -04:00
Dillon DuPont feca80e793 Merge branch 'main' into feature/computer/extensions 2025-05-31 09:14:11 -04:00
ddupont d9c2701644 Merge pull request #279 from trycua/docs/cloud_notebooks
[Docs] Updated notebooks for cloud flow
2025-05-29 18:54:59 -04:00
Dillon DuPont 8b25f2c1ec Variable change 2025-05-29 18:53:08 -04:00
Dillon DuPont f6aa56b691 Updated notebooks for cloud flow 2025-05-29 18:47:20 -04:00
f-trycua 317d8cc0dc Merge pull request #278 from trycua/fix/readme-rewording
Rewording README for Windows/Linux
2025-05-29 20:05:28 +02:00
Dillon DuPont 776f645230 Rewording README for Windows/Linux 2025-05-29 11:13:28 -04:00
Dillon DuPont 2f60443357 Python 3.11 check 2025-05-29 10:40:26 -04:00
Dillon DuPont 2b630fc7f8 Refactoring quickstart script 2025-05-29 10:21:00 -04:00
f-trycua 5cba4a0c64 Merge pull request #276 from trycua/feat/multiplatform
[Agent/Computer] Windows + Linux support
computer-v0.2.7 mcp-server-v0.1.13 agent-v0.2.6
2025-05-29 01:10:28 +02:00
Dillon DuPont 4d097c7871 Merge branch 'main' into feat/multiplatform 2025-05-28 16:33:59 -04:00
Dillon DuPont fe0411e51d Merge branch 'main' into feat/multiplatform 2025-05-28 16:31:28 -04:00
Dillon DuPont c81cdeef94 added mlx conditional in ui 2025-05-28 16:30:50 -04:00
Dillon DuPont 01f7b66243 upgrade 2025-05-28 16:23:07 -04:00
Dillon DuPont f549a25827 README updates 2025-05-28 16:20:15 -04:00
f-trycua fef2f96a9f Merge pull request #274 from trycua/hotfix/py311
Bump python to 3.11 for client modules
2025-05-28 22:06:46 +02:00
Dillon DuPont 4422b7a0fb readme drafts 2025-05-28 15:59:15 -04:00
Dillon DuPont 7a55fb2600 Launch gradio UI with inbrowser=True when using cli 2025-05-28 15:30:26 -04:00
Dillon DuPont 677c6e8cd0 Fixed invalid format code on Windows 2025-05-28 12:37:36 -04:00
Dillon DuPont f268aa5c7c Updated readme for multiplatform 2025-05-28 12:01:25 -04:00
Dillon DuPont b752648458 Merge branch 'main' into feat/multiplatform 2025-05-28 11:53:35 -04:00
Dillon DuPont c4130a3b9b Restrict lume provider to mac in UI 2025-05-28 11:39:42 -04:00
ddupont 6a17e45c57 Merge pull request #271 from trycua/fix/computer/ws-auth
[Computer] Fix ws auth
computer-v0.2.6 agent-v0.2.5
2025-05-28 10:57:51 -04:00
Dillon DuPont 0d3bebf32d .env fixes, use CUA_API_KEY in app.py 2025-05-28 09:25:21 -04:00
Dillon DuPont eba796b078 Added computer.run for local 2025-05-28 09:10:11 -04:00